www.pogodaiklimat.ru

Погода и климат >> Архив погоды >> Россия >> Красноярский край >> Сухобузимское


ПОГОДА в Сухобузимском

  • Прогноз погоды в Сухобузимском
  • Монитор погоды в Сухобузимском

АРХИВ ПОГОДЫ в Сухобузимском

Время (UTC), дата Ветер
(напр.,м/с)
 
Видим.   Явления Облачность Т
(С)
Тd
(С)
f
(%)
Тe
(С)
Тes
(С)
Комфортность P
(гПа)
Po
(гПа)
Тmin
(С)
Tmax
(С)
R
(мм)
R24
(мм)
S
(см)
09 17.04 Ю 6
{10}
50 км 3/3 1000 м
[Cu med, cong]
+10.0 -9.8 24 +7 +9 1009.3 989.5
12 17.04 ЮЗ 4
{10}
50 км 8/3 1000 м
[Cu med, cong Ci fib]
+7.9 -8.2 31 +5 +6 1007.9 988.1 +10.3
15 17.04 ЮЗ 2 20 км 9/0 2000 м
[Ac trans]
+4.1 -7.7 42 +2 +2 1006.9 986.8
18 17.04 штиль 0 20 км 8/0
[Ac trans]
-0.1 -7.6 57 -1 -1 1005.6 985.2
21 17.04 штиль 0 20 км 8/0 2000 м
[Ac trans]
-2.4 -7.7 67 -3 -3 1003.3 982.8
00 18.04 ЮВ 4 50 км 4/0 2000 м
[Ac trans]
+2.4 -6.0 54 -2 -1 998.9 978.8 -2.4
03 18.04 Ю 7
{15}
50 км 10/6 600 м
[Cb cap Ac As]
+7.2 -2.8 49 +3 +3 993.7 974.1
06 18.04 З 9
{17}
10 км слаб. ливневой дождь 10/10 600 м
[Cb cap]
+5.8 +1.2 72 0 0 990.9 971.2
09 18.04 З 11
{19}
50 км {ливн. осадки} 8/8 600 м
[Cb cap]
+3.4 -4.4 57 -3 -3 996.1 976.2
12 18.04 ЮЗ 11
{20}
50 км 4/4 600 м
[Cb cap]
+0.6 -8.9 49 -7 -7 1002.4 982.2 1
15 18.04 ЮЗ 9
{20}
20 км 6/6 600 м
[Cb cap]
+3.9 -11.4 32 -2 -2 1008.8 988.0
18 18.04 ЮЗ 8
{18}
20 км ясно -6.3 -15.6 48 -15 -15 1011.9 990.9
21 18.04 ЮЗ 8
{14}
4000 м слаб. снег 10/0
[As op]
-7.7 -11.7 73 -17 -17 1014.2 993.0
00 19.04 ЮЗ 9
{16}
4000 м слаб. снег 10/0
[As op]
-5.7 -9.2 76 -15 -15 1016.4 995.3 -8.0 0.0 <0.5
03 19.04 З 9
{18}
50 км в посл. час ливневой снег 9/8 600 м
[Cb cap Ac cuf]
-3.4 -9.0 65 -12 -12 1019.8 998.9
06 19.04 З 8
{18}
50 км {ливн. осадки, снег} 8/8 1000 м
[Cu med, cong]
+0.2 -10.6 44 -6 -6 1021.8 1001.1
09 19.04 З 7
{18}
50 км 4/4 1000 м
[Cu med, cong]
+2.1 -15.7 25 -3 -2 1022.4 1001.8
12 19.04 З 6
{15}
50 км ясно +1.6 -15.4 27 -3 -3 1022.1 1001.5 +2.6 0.0
15 19.04 Ю 3
{11}
20 км ясно -2.6 -14.0 41 -7 -7 1022.4 1001.4
18 19.04 ЮЗ 2 20 км ясно -4.1 -12.0 54 -8 -8 1021.2 1000.2
21 19.04 З 1 20 км ясно -7.7 -12.1 71 -10 -10 1020.2 998.9
00 20.04 З 1 50 км 3/3 1000 м
[Sc]
-5.6 -10.4 69 -8 -7 1018.8 997.7 -8.6
03 20.04 З 2 50 км 4/4 1000 м
[Cu hum]
+2.2 -10.0 40 -0 +5 1016.5 996.1
06 20.04 З 2 50 км 4/0
[Ci fib]
+5.4 -10.0 32 +4 +15 опасность
простуды
1013.7 993.6
09 20.04 Ю 2 50 км 8/4 1000 м
[Cu hum Ci fib]
+7.3 -10.5 27 +6 +10 1010.9 990.9
12 20.04 Ю 1 50 км 8/0 2000 м
[Ac trans Cs]
+6.6 -10.6 28 +7 +7 1009.5 989.5 +7.9
15 20.04 ЮЗ 1 20 км 3/0
[Ci fib]
-1.0 -9.9 51 -2 -2 1009.5 989.0
18 20.04 З 1 20 км 8/0
[Cs]
-4.7 -9.9 67 -7 -7 1009.0 988.2
21 20.04 ЮЗ 1 20 км 6/0
[Cs]
-6.3 -10.3 73 -8 -8 1008.7 987.8
00 21.04 З 1 50 км 9/0 2000 м
[Ac trans Cc]
-4.5 -8.6 73 -7 -6 1008.8 988.0 -7.3
03 21.04 ЮЗ 3 50 км 8/8 1000 м
[Sc]
+4.4 -7.6 41 +2 +3 1007.8 987.7
06 21.04 З 5
{10}
50 км 10/5 600 м
[Cb cap As op]
+6.5 -8.1 34 +3 +4 1007.7 987.7
09 21.04 З 4
{13}
50 км 10/5 600 м
[Cb cap As trans]
+5.8 -3.3 52 +2 +3 1007.9 987.9
12 21.04 З 6
{17}
50 км в посл. час ливневой снег 10/8 600 м
[Cb cap As op]
+0.6 -2.0 83 -6 -6 1011.6 991.1 +7.9 0.4
15 21.04 З 2
{10}
20 км 9/0
[Ac trans Cs]
-1.6 -7.0 67 -5 -5 1014.8 994.1
18 21.04 З 2 20 км 4/0
[Ci fib]
-5.5 -9.3 75 -10 -10 1018.0 996.9
21 21.04 З 1 н/о н/о -6.4 -10.4 73 -9 -9 1020.5 999.3
00 22.04 З 1 50 км 8/0 2000 м
[Ac trans]
-6.2 -9.9 75 -8 -8 1022.6 1001.4 -7.8
03 22.04 З 5 50 км 8/8 600 м
[Cb cap]
-0.1 -8.9 51 -6 -5 1023.6 1002.9
06 22.04 З 4 50 км 8/8 600 м
[Cb cap]
+2.5 -9.8 40 -1 0 1023.6 1003.0
09 22.04 З 3 50 км 8/8 600 м
[Cb cap]
+4.9 -10.3 32 +2 +3 1023.3 1002.9
12 22.04 З 3 50 км ясно +5.4 -11.1 29 +3 +4 1023.1 1002.7 +6.1
15 22.04 Ю 2 20 км ясно -2.2 -10.0 55 -6 -6 1024.9 1003.9
18 22.04 ЮЗ 1 20 км ясно -6.1 -10.4 72 -8 -8 1026.1 1004.8
21 22.04 ЮЗ 1 20 км ясно -8.9 -11.6 81 -11 -11 1026.7 1005.2
00 23.04 З 1 20 км 4/4 1000 м
[Sc]
-5.5 -9.5 73 -8 -7 1026.9 1005.6 -9.3
03 23.04 С 1 50 км 8/0
[Ac trans]
+5.4 -7.1 40 +5 +10 1025.3 1005.0
06 23.04 ЮЗ 2 50 км 6/0
[Ac cast]
+10.5 -9.0 24 +10 +17 1023.1 1003.1
09 23.04 З 1 50 км 4/0
[Ac cast]
+11.4 -8.6 24 +12 +18 1021.0 1001.2
12 23.04 В 2 50 км ясно +10.6 -8.6 25 +10 +11 1019.3 999.3 +12.1
15 23.04 В 1 20 км ясно +2.3 -8.1 46 +1 +1 1019.3 998.8
18 23.04 ЮЗ 1 20 км ясно -3.0 -9.0 63 -5 -5 1019.2 998.3
21 23.04 ЮЗ 1 20 км ясно -5.7 -9.5 75 -8 -8 1018.3 997.2
00 24.04 ЮЗ 1 50 км ясно -3.6 -8.0 71 -6 -4 1017.7 996.8 -6.8
03 24.04 СЗ 1 50 км ясно +10.0 -5.6 33 +10 +20 опасность
простуды
1015.6 995.7
06 24.04 З 2 50 км 4/4 1000 м
[Cu hum]
+14.7 -8.1 20 +15 +22 1013.6 994.0

 

Местоположение метеостанции Сухобузимское (Красноярский край, Россия): широта 56.50 долгота 93.28 высота над уровнем моря 164 м.

В архиве по умолчанию представлена погода в Сухобузимском за последнюю неделю. Архивные данные за месяц целиком и за предыдущие месяцы, начиная с января 2011 года, Вы можете получить, выбрав интересующий диапазон дат из раскрывающегося списка и нажав кнопку "Ввод!".


*Определитесь, кто Вы:
робот инопланетянин человек

Внимание! Время в таблицах - всемирное. Для получения местного времени необходимо прибавить поправку, которая равна 7 ч.

Смотрите также архив погоды в соседних городах и на ближайших метеорологических станциях:

Погода в Погорельском Бору (Красноярский край, Россия) (25 км)
Погода в Железногорске (Красноярский край, Россия) (31 км)
Погода в Большой Мурте (Красноярский край, Россия) (45 км)
Погода в Минино (Красноярский край, Россия) (59 км)
Погода в Емельяново (Красноярский край, Россия) (61 км)
Погода в Красноярске (Красноярский край, Россия) (62 км)
Погода в Роевом Ручье (Красноярский край, Россия) (68 км)
Погода в Каче (Красноярский край, Россия) (79 км)
Погода в Шумихе (Красноярский край, Россия) (86 км)
Погода в Шалинском (Красноярский край, Россия) (92 км)

Пояснения к столбцам:

Ветер - указаны скорость ветра в м/с - средняя за 10 мин, порывы в срок и между сроками (в фигурных скобках) и направление, откуда дует ветер: С - северный, СВ - северо-восточный, В - восточный, ЮВ - юго-восточный, Ю - южный, ЮЗ - юго-западный, З - западный, СЗ - северо-западный.
Видимость - горизонтальная дальность видимости в метрах или километрах. При видимости от 1 до 10 км при отсутствии осадков обычно наблюдается дымка, при ухудшении видимости до 1 км и менее - туман. В сухую погоду видимость может ухудшаться дымом, пылью или мглою.
Явления - указаны атмосферные явления, наблюдавшиеся в срок или в последний час перед сроком; фигурными скобками обозначены явления, наблюдавшиеся между сроками (за 1-3 часа до срока); квадратными скобками обозначены град или гололедные отложения с указанием их диаметра в мм.
Облачность - указаны через наклонную черту общая и нижняя облачность в баллах и высота нижней границы облаков в метрах; квадратными скобками обозначены формы облаков: Ci - перистые, Cs - перисто-слоистые, Cc - перисто-кучевые, Ac - высококучевые, As - высокослоистые, Sc - слоисто-кучевые, Ns - слоисто-дождевые, Cu - кучевые, Cb - кучево-дождевые. Подробнее классификацию облаков см. в Атласе облаков (PDF).
T - Температура воздуха - температура, измеренная на высоте 2 м над землей.
Td - Температура точки росы - температура, при понижении до которой содержащийся в воздухе водяной пар достигнет насыщения.
f - Относительная влажность воздуха - влажноcть воздуха, измеренная на высоте 2 м над землей.
Te - Эффективная температура - температура, которую ощущает одетый по сезону человек в тени. Характеристика душности погоды. При расчете учитывается влияние влажности воздуха и скорости ветра на теплоощущения человека.
Tes - Эффективная температура на солнце - температура, которую ощущает человек, с поправкой на солнечный нагрев. Характеристика знойности погоды. Зависит от высоты солнца над горизонтом, облачности и скорости ветра. Ночью, в пасмурную погоду, а также при ветре 12 м/с и более поправка равна нулю.
P - Атмосферное давление - приведенное к уровню моря атмосферное давление.
Po - Атмосферное давление - измеренное на уровне метеостанции атмосферное давление.
Tmin - Минимальная температура - минимум температуры воздуха на высоте 2 м над землей.
Tmax - Максимальная температура - максимум температуры воздуха на высоте 2 м над землей.
R - Количество осадков - Количество выпавших осадков за период времени, мм. При наведении курсора мыши на число - период времени, за который выпало указанное количество осадков.
R24 - Количество осадков - Количество выпавших осадков за 24 часа, мм.
S - Снежный покров - Высота снежного покрова, см. При наведении курсора мыши на число - состояние снежного покрова и степень покрытия местности в баллах.